Weather in Oparino

Russia / Kemerovo Oblast     55°25′50″N   85°13′56″E
temp.,
°C
wind,
m/s
gust,
m/s
humid.,
%
clouds,
%
prec.,
mm/h
press.,
hPa
HPBL,
m
19 september, sun
sun1901:00+4sw368259 0.0 1010103
04:00+7ssw4871100 0.0 1010313
07:00+6s597399 0.0 1009340
10:00+8ssw6962100 0.0 1008650
13:00+11ssw6851100 0.0 10071231
16:00+13ssw6845100 0.0 10041583
19:00+11s4857100 0.0 1003164
22:00+9w5108298 0.3 1004789
20 september, mon
mon2001:00+5w51192100 0.3 1005401
04:00+5wsw61093100 0.5 1006482
07:00+3sw4109442 0.6 1008324
10:00+5sw71278100 0.1 10091221
13:00+6sw91266100 0.4 10101460
16:00+5wsw7127899 0.6 10111279
19:00+4sw61186100 1.0 1012902
22:00+3sw51092100 0.5 1011762
21 september, tue
tue2101:00+2wsw5897100 0.6 1011756
04:00+2wsw5997100 0.4 1011546
07:00+1wsw698899 1.2 1012586
10:00+2wsw699292 0.3 1013697
13:00+2wsw51097100 1.1 1013542
16:00+2w599699 0.3 1014648
19:00+2w61197100 0.7 1016767
22:00+2w61096100 0.1 1017614
22 september, wed
wed2201:00+2wsw4894100 0.1 1018524
04:00+1wsw4898100 0.1 1018415
07:00+1wsw4798100 0.5 1019400
10:000wnw3698100 1.1 1020318
13:00+3wsw5779100 1.3 10211052
16:00+4wsw5672100 0.3 10201114
19:00+2sw3484100 0.3 102198
22:00+1ssw3599100 0.2 1021322
23 september, thu
thu2301:00+2sw2499100 1.2 1020218
04:00+1sw23100100 1.1 1019143
07:00+1ssw23100100 1.4 1020142
10:00+1sw1199100 0.2 1020181
13:00+2ssw1199100 0.6 1021158
16:00+2w1199100 0.4 1022203
19:00+2nw239688 0.6 1023256
22:00+1n249894 0.0 1024260